Regional Weather Roundup
Issued by NWS Northern Indiana

Home | Current Version | Previous Version | Graphics & Text | Print | Product List | Glossary On
Versions: 1 2 3 4 5 6 7 8 9 10 11 12 13 14 15 16 17 18 19 20 21 22 23 24 25 26 27 28 29 30 31 32 33 34 35 36 37 38 39 40 41 42 43 44 45 46 47 48 49 50
000
ASUS43 KIWX 301200
RWRIWX

KIWX WEATHER ROUNDUP
NATIONAL WEATHER SERVICE NORTHERN INDIANA
800 AM EDT SAT APR 30 2016

NOTE: "FAIR" INDICATES FEW OR NO CLOUDS BELOW 12,000 FEET WITH NO
SIGNIFICANT WEATHER AND/OR OBSTRUCTIONS TO VISIBILITY.

* THESE STATIONS ARE NOT UNDER NWS QUALITY CONTROL. THEY ALSO MAY NOT
  REPORT WEATHER SUCH AS PRECIPITATION OR FOG.

INZ001>027-301300-
NORTHERN INDIANA

CITY           SKY/WX    TMP DP  RH WIND       PRES   REMARKS
GARY*          CLOUDY    48  48 100 E9        30.08R
SOUTH BEND     CLOUDY    45  34  65 SE13      30.10R
6HR MIN TEMP:  44; 6HR MAX TEMP:  46;

GOSHEN         PTSUNNY   45  35  68 SE8       30.10R
6HR MIN TEMP:  42; 6HR MAX TEMP:  47;

ANGOLA*        SUNNY     43  30  61 E9        30.10S
FORT WAYNE     CLOUDY    43  38  82 E12       30.10S
6HR MIN TEMP:  42; 6HR MAX TEMP:  46;


$$
INZ028>050-301300-
CENTRAL INDIANA

CITY           SKY/WX    TMP DP  RH WIND       PRES   REMARKS
LAFAYETTE      LGT RAIN  50  46  86 E14       30.01F
6HR MIN TEMP:  48; 6HR MAX TEMP:  50; 6HR PCP: TRACE;

KOKOMO*        CLOUDY    46  43  87 E12       30.04F
6HR MIN TEMP:  46; 6HR MAX TEMP:  48;

MUNCIE*        CLOUDY    49  43  80 E10       30.06R
6HR MIN TEMP:  49; 6HR MAX TEMP:  51;

INDIANAPOLIS   LGT RAIN  52  47  83 E14       29.99S
6HR MIN TEMP:  52; 6HR MAX TEMP:  53; 6HR PCP: TRACE;


$$
MIZ043>046-050>051-056>058-064>065-071>073-077>080-301300-
SOUTHWEST LOWER MICHIGAN

CITY           SKY/WX    TMP DP  RH WIND       PRES   REMARKS
BATTLE CREEK   CLOUDY    46  38  73 E7        30.13R
6HR MIN TEMP:  45; 6HR MAX TEMP:  48;

BENTON HARBOR  CLOUDY    47  38  71 E8        30.10R
6HR MIN TEMP:  42; 6HR MAX TEMP:  48;

COLDWATER*     CLOUDY    46  39  77 E8        30.11R
6HR MIN TEMP:  45; 6HR MAX TEMP:  47;

HILLSDALE*     CLOUDY    44  38  82 E7        30.12R
6HR MIN TEMP:  42; 6HR MAX TEMP:  46;

HOLLAND        CLOUDY    43  38  82 E7        30.13S
6HR MIN TEMP:  39; 6HR MAX TEMP:  44;

GRAND RAPIDS   PTSUNNY   42  37  82 E10       30.14S
6HR MIN TEMP:  38; 6HR MAX TEMP:  42;

KALAMAZOO      CLOUDY    47  38  71 E5        30.12R
6HR MIN TEMP:  47; 6HR MAX TEMP:  49;

STURGIS*       CLOUDY    44  38  79 E6        30.10R
6HR MIN TEMP:  41; 6HR MAX TEMP:  47;

THREE RIVERS*  FAIR      46  39  76 E6        30.11S

$$
OHZ001>008-015>018-024>025-301300-
NORTHWEST OHIO

CITY           SKY/WX    TMP DP  RH WIND       PRES   REMARKS
DEFIANCE       CLOUDY    45  36  70 E8        30.12R
6HR MIN TEMP:  42; 6HR MAX TEMP:  46;

FINDLAY        CLOUDY    43  36  76 E10       30.11R
6HR MIN TEMP:  40; 6HR MAX TEMP:  43;

TOLEDO EXPRESS CLOUDY    43  39  86 NE5       30.13R
6HR MIN TEMP:  36; 6HR MAX TEMP:  44;

TOLEDO METCALF PTSUNNY   44  38  79 E5        30.14S
6HR MIN TEMP:  39; 6HR MAX TEMP:  44;

LIMA           CLOUDY    43  39  86 E7        30.11R
6HR MIN TEMP:  40; 6HR MAX TEMP:  44;


$$
AND FOR LAKE MICHIGAN COASTAL AND OPEN LAKE BUOY OBSERVATIONS

STATION/POSITION TEMP    WIND        PRES    VSBY  WAVE
                 AIR SEA DIR/SP/G                  HT/PER
                 (F)     (DEG/KT/KT) (MB)    (MI)  (FT/S)
CALUMET HARBOR    47      70/  8/ 12 1017.3R
BURNS HARBOR      47     100/  8/ 12 1018.3S
SAINT JOSEPH      47      10/  1/  4 1019.6S
SOUTH LAKE BUOY   41 40   70/ 12/ 12 1019.4          1
4 MI NW BRIDGMAN  47 47                N/A           1/ 4

$$
&&




USA.gov is the U.S. government's official web portal to all federal, state and local government web resources and services.